iso_date,Year,Hour,Min,DOY,POS_DOY,Lat,Lon,BP,Ts,Ta,has_bp,has_ts,has_ta,BuoyID,Buoy_Type,Buoy_Owner,Logistics,Hemisphere
2021-11-21T17:03:41Z,2021,17,3,325.7109,325.7109,56.54054,-61.7008,1015.9,1.55,-3.12,yes,yes,yes,300434063449970,SIMB3,CIS,unknown,North
2021-11-21T18:04:27Z,2021,18,4,325.7531,325.7531,56.5404,-61.70155,1015.6,-2.59,-4.0,yes,yes,yes,300434063449970,SIMB3,CIS,unknown,North
2021-11-21T19:01:20Z,2021,19,1,325.7926,325.7926,56.5423,-61.67069,1017.7,-5.18,-4.56,yes,yes,yes,300434063449970,SIMB3,CIS,unknown,North
2021-11-21T19:25:06Z,2021,19,25,325.8091,325.8091,56.51577,-61.66146,1018.6,-4.37,-4.06,yes,yes,yes,300434063449970,SIMB3,CIS,unknown,North
2021-11-21T20:01:49Z,2021,20,1,325.8346,325.8346,56.5163,-61.65955,1018.8,2.14,-4.44,yes,yes,yes,300434063449970,SIMB3,CIS,unknown,North
2021-11-21T21:01:00Z,2021,21,1,325.8757,325.8757,56.51627,-61.65959,1018.7,2.09,-4.75,yes,yes,yes,300434063449970,SIMB3,CIS,unknown,North
2021-11-21T22:02:38Z,2021,22,2,325.9185,325.9185,56.51629,-61.65959,1018.5,2.09,-4.5,yes,yes,yes,300434063449970,SIMB3,CIS,unknown,North
2021-11-21T23:01:49Z,2021,23,1,325.9596,325.9596,56.51625,-61.65964,1018.5,2.07,-4.31,yes,yes,yes,300434063449970,SIMB3,CIS,unknown,North
2021-11-22T00:01:52Z,2021,0,1,326.0013,326.0013,56.51633,-61.65932,1018.8,1.87,-4.38,yes,yes,yes,300434063449970,SIMB3,CIS,unknown,North
2021-11-22T01:00:54Z,2021,1,0,326.0423,326.0423,56.51627,-61.65945,1019.3,1.89,-5.62,yes,yes,yes,300434063449970,SIMB3,CIS,unknown,North
2021-11-22T02:00:57Z,2021,2,0,326.084,326.084,56.51617,-61.65942,1019.7,1.91,-6.69,yes,yes,yes,300434063449970,SIMB3,CIS,unknown,North
2021-11-22T03:01:00Z,2021,3,1,326.1257,326.1257,56.5162,-61.65944,1020.3,1.89,-6.88,yes,yes,yes,300434063449970,SIMB3,CIS,unknown,North
2021-11-22T04:00:54Z,2021,4,0,326.1673,326.1673,56.51624,-61.65943,1020.8,1.87,-6.56,yes,yes,yes,300434063449970,SIMB3,CIS,unknown,North
2021-11-22T05:00:57Z,2021,5,0,326.209,326.209,56.51619,-61.65946,1021.5,1.46,-3.38,yes,yes,yes,300434063449970,SIMB3,CIS,unknown,North
2021-11-22T06:01:00Z,2021,6,1,326.2507,326.2507,56.51641,-61.65957,1022.0,1.73,-6.0,yes,yes,yes,300434063449970,SIMB3,CIS,unknown,North
2021-11-22T07:01:55Z,2021,7,1,326.293,326.293,56.51625,-61.65946,1022.5,1.37,-5.75,yes,yes,yes,300434063449970,SIMB3,CIS,unknown,North
2021-11-22T08:00:57Z,2021,8,0,326.334,326.334,56.51614,-61.65926,1022.9,1.56,-3.56,yes,yes,yes,300434063449970,SIMB3,CIS,unknown,North
2021-11-22T09:02:18Z,2021,9,2,326.3766,326.3766,56.51618,-61.65936,1023.2,1.58,-3.25,yes,yes,yes,300434063449970,SIMB3,CIS,unknown,North
2021-11-22T10:02:47Z,2021,10,2,326.4186,326.4186,56.5163,-61.65941,1023.6,1.66,-3.06,yes,yes,yes,300434063449970,SIMB3,CIS,unknown,North
2021-11-22T11:01:06Z,2021,11,1,326.4591,326.4591,56.51608,-61.65875,1024.0,1.77,-4.88,yes,yes,yes,300434063449970,SIMB3,CIS,unknown,North
2021-11-22T12:01:00Z,2021,12,1,326.5007,326.5007,56.51618,-61.6594,1023.7,1.95,-6.44,yes,yes,yes,300434063449970,SIMB3,CIS,unknown,North
2021-11-22T13:00:54Z,2021,13,0,326.5423,326.5423,56.51612,-61.65953,1024.0,1.91,-4.25,yes,yes,yes,300434063449970,SIMB3,CIS,unknown,North
2021-11-22T14:01:06Z,2021,14,1,326.5841,326.5841,56.51635,-61.65954,1023.7,1.97,-3.12,yes,yes,yes,300434063449970,SIMB3,CIS,unknown,North
2021-11-22T15:01:00Z,2021,15,1,326.6257,326.6257,56.51628,-61.65937,1022.9,1.99,-3.12,yes,yes,yes,300434063449970,SIMB3,CIS,unknown,North
2021-11-22T16:00:54Z,2021,16,0,326.6673,326.6673,56.51617,-61.65944,1022.1,2.28,-2.5,yes,yes,yes,300434063449970,SIMB3,CIS,unknown,North
2021-11-22T17:00:57Z,2021,17,0,326.709,326.709,56.5161,-61.65947,1021.8,2.27,-1.38,yes,yes,yes,300434063449970,SIMB3,CIS,unknown,North
2021-11-22T18:01:00Z,2021,18,0,326.7507,326.7507,56.51636,-61.65963,1020.5,1.78,-0.25,yes,yes,yes,300434063449970,SIMB3,CIS,unknown,North
2021-11-22T19:00:54Z,2021,19,0,326.7923,326.7923,56.51626,-61.65976,1019.4,1.76,0.0,yes,yes,yes,300434063449970,SIMB3,CIS,unknown,North
2021-11-22T20:01:23Z,2021,20,1,326.8343,326.8343,56.51631,-61.65966,1018.6,1.62,-0.12,yes,yes,yes,300434063449970,SIMB3,CIS,unknown,North
2021-11-22T21:01:00Z,2021,21,1,326.8757,326.8757,56.51629,-61.65976,1016.7,1.66,-0.62,yes,yes,yes,300434063449970,SIMB3,CIS,unknown,North
2021-11-22T22:02:29Z,2021,22,2,326.9184,326.9184,56.5164,-61.65958,1015.5,1.77,-0.38,yes,yes,yes,300434063449970,SIMB3,CIS,unknown,North
2021-11-22T23:01:32Z,2021,23,1,326.9594,326.9594,56.51612,-61.65921,1014.2,1.72,0.5,yes,yes,yes,300434063449970,SIMB3,CIS,unknown,North
2021-11-23T00:01:26Z,2021,0,1,327.001,327.001,56.51633,-61.65957,1012.5,1.66,0.75,yes,yes,yes,300434063449970,SIMB3,CIS,unknown,North
2021-11-23T01:01:20Z,2021,1,1,327.0426,327.0426,56.51626,-61.6597,1010.5,1.66,1.19,yes,yes,yes,300434063449970,SIMB3,CIS,unknown,North
2021-11-23T02:03:07Z,2021,2,3,327.0855,327.0855,56.5156,-61.66125,1008.8,1.14,1.5,yes,yes,yes,300434063449970,SIMB3,CIS,unknown,North
2021-11-23T03:02:52Z,2021,3,2,327.127,327.127,56.51626,-61.6596,1006.8,1.65,1.88,yes,yes,yes,300434063449970,SIMB3,CIS,unknown,North
2021-11-23T04:00:54Z,2021,4,0,327.1673,327.1673,56.51643,-61.65955,1005.1,1.75,2.31,yes,yes,yes,300434063449970,SIMB3,CIS,unknown,North
2021-11-23T05:01:23Z,2021,5,1,327.2093,327.2093,56.51558,-61.65995,1003.9,1.77,2.75,yes,yes,yes,300434063449970,SIMB3,CIS,unknown,North
2021-11-23T06:01:26Z,2021,6,1,327.251,327.251,56.51605,-61.65938,1003.0,1.77,3.25,yes,yes,yes,300434063449970,SIMB3,CIS,unknown,North
2021-11-23T07:00:54Z,2021,7,0,327.2923,327.2923,56.51627,-61.65955,1002.9,1.77,4.81,yes,yes,yes,300434063449970,SIMB3,CIS,unknown,North
2021-11-23T08:00:57Z,2021,8,1,327.334,327.334,56.51632,-61.65964,1002.1,1.77,5.0,yes,yes,yes,300434063449970,SIMB3,CIS,unknown,North
2021-11-23T09:01:09Z,2021,9,1,327.3758,327.3758,56.51617,-61.6597,1002.0,1.77,4.88,yes,yes,yes,300434063449970,SIMB3,CIS,unknown,North
2021-11-23T10:02:47Z,2021,10,2,327.4186,327.4186,56.51617,-61.65943,1001.6,1.77,5.12,yes,yes,yes,300434063449970,SIMB3,CIS,unknown,North
2021-11-23T11:00:57Z,2021,11,1,327.459,327.459,56.51616,-61.65944,1001.4,1.99,5.19,yes,yes,yes,300434063449970,SIMB3,CIS,unknown,North
2021-11-23T12:01:17Z,2021,12,1,327.5009,327.5009,56.51655,-61.65913,1001.7,2.04,4.94,yes,yes,yes,300434063449970,SIMB3,CIS,unknown,North
2021-11-23T13:01:03Z,2021,13,1,327.5424,327.5424,56.51618,-61.65937,1002.8,1.87,3.69,yes,yes,yes,300434063449970,SIMB3,CIS,unknown,North
2021-11-23T14:02:24Z,2021,14,2,327.585,327.585,56.51623,-61.65936,1003.6,1.97,3.38,yes,yes,yes,300434063449970,SIMB3,CIS,unknown,North
2021-11-23T15:03:10Z,2021,15,3,327.6272,327.6272,56.51627,-61.6594,1004.8,1.97,1.56,yes,yes,yes,300434063449970,SIMB3,CIS,unknown,North
2021-11-23T16:00:54Z,2021,16,0,327.6673,327.6673,56.51622,-61.65942,1006.2,1.97,0.38,yes,yes,yes,300434063449970,SIMB3,CIS,unknown,North
2021-11-23T17:01:32Z,2021,17,1,327.7094,327.7094,56.51623,-61.65924,1007.5,2.07,-0.38,yes,yes,yes,300434063449970,SIMB3,CIS,unknown,North
2021-11-23T18:00:51Z,2021,18,0,327.7506,327.7506,56.5162,-61.65942,1008.8,2.09,-1.5,yes,yes,yes,300434063449970,SIMB3,CIS,unknown,North
2021-11-23T19:01:20Z,2021,19,1,327.7926,327.7926,56.51612,-61.65952,1009.8,2.04,-1.94,yes,yes,yes,300434063449970,SIMB3,CIS,unknown,North
2021-11-23T20:00:57Z,2021,20,0,327.834,327.834,56.51643,-61.6593,1010.6,2.18,-2.0,yes,yes,yes,300434063449970,SIMB3,CIS,unknown,North
2021-11-23T21:01:00Z,2021,21,1,327.8757,327.8757,56.51629,-61.65942,1011.7,2.07,-2.56,yes,yes,yes,300434063449970,SIMB3,CIS,unknown,North
2021-11-23T22:01:03Z,2021,22,1,327.9174,327.9174,56.5162,-61.65955,1012.3,2.02,-2.81,yes,yes,yes,300434063449970,SIMB3,CIS,unknown,North
2021-11-23T23:02:15Z,2021,23,2,327.9599,327.9599,56.51632,-61.65948,1012.9,2.07,-2.81,yes,yes,yes,300434063449970,SIMB3,CIS,unknown,North
2021-11-24T00:01:09Z,2021,0,1,328.0008,328.0008,56.51633,-61.65949,1013.3,1.97,-2.88,yes,yes,yes,300434063449970,SIMB3,CIS,unknown,North
2021-11-24T01:02:03Z,2021,1,2,328.0431,328.0431,56.51631,-61.65946,1013.2,1.89,-2.81,yes,yes,yes,300434063449970,SIMB3,CIS,unknown,North
2021-11-24T02:01:23Z,2021,2,1,328.0843,328.0843,56.51631,-61.6595,1013.5,1.87,-2.5,yes,yes,yes,300434063449970,SIMB3,CIS,unknown,North
2021-11-24T03:01:52Z,2021,3,1,328.1263,328.1263,56.51626,-61.65946,1013.4,1.97,-2.12,yes,yes,yes,300434063449970,SIMB3,CIS,unknown,North
2021-11-24T04:00:54Z,2021,4,0,328.1673,328.1673,56.51634,-61.65943,1014.2,1.87,-2.0,yes,yes,yes,300434063449970,SIMB3,CIS,unknown,North
2021-11-24T05:01:06Z,2021,5,1,328.2091,328.2091,56.5162,-61.65942,1014.8,1.97,-2.06,yes,yes,yes,300434063449970,SIMB3,CIS,unknown,North
2021-11-24T06:01:26Z,2021,6,1,328.251,328.251,56.51618,-61.65923,1015.1,2.05,-1.81,yes,yes,yes,300434063449970,SIMB3,CIS,unknown,North
2021-11-24T07:01:03Z,2021,7,1,328.2924,328.2924,56.51617,-61.65942,1016.3,1.96,-1.94,yes,yes,yes,300434063449970,SIMB3,CIS,unknown,North
2021-11-24T08:00:48Z,2021,8,0,328.3339,328.3339,56.51626,-61.65951,1016.9,1.87,-1.94,yes,yes,yes,300434063449970,SIMB3,CIS,unknown,North
2021-11-24T09:02:35Z,2021,9,2,328.3768,328.3768,56.51621,-61.65966,1017.0,1.84,-1.56,yes,yes,yes,300434063449970,SIMB3,CIS,unknown,North
2021-11-24T10:00:54Z,2021,10,0,328.4173,328.4173,56.51636,-61.65958,1019.0,1.87,-2.06,yes,yes,yes,300434063449970,SIMB3,CIS,unknown,North
2021-11-24T11:00:48Z,2021,11,0,328.4589,328.4589,56.51592,-61.65886,1019.7,1.89,-1.5,yes,yes,yes,300434063449970,SIMB3,CIS,unknown,North
2021-11-24T12:01:52Z,2021,12,1,328.5013,328.5013,56.51558,-61.65768,1020.6,1.77,-1.0,yes,yes,yes,300434063449970,SIMB3,CIS,unknown,North
2021-11-24T13:01:12Z,2021,13,1,328.5425,328.5425,56.51606,-61.65938,1020.7,1.77,-1.5,yes,yes,yes,300434063449970,SIMB3,CIS,unknown,North
2021-11-24T14:01:06Z,2021,14,1,328.5841,328.5841,56.51636,-61.6596,1021.7,1.87,-1.44,yes,yes,yes,300434063449970,SIMB3,CIS,unknown,North
2021-11-24T15:01:00Z,2021,15,1,328.6257,328.6257,56.51629,-61.6595,1022.1,1.77,-1.5,yes,yes,yes,300434063449970,SIMB3,CIS,unknown,North
2021-11-24T16:01:12Z,2021,16,1,328.6675,328.6675,56.51619,-61.65957,1022.5,1.56,-1.06,yes,yes,yes,300434063449970,SIMB3,CIS,unknown,North
2021-11-24T17:01:23Z,2021,17,1,328.7093,328.7093,56.51619,-61.65937,1022.7,1.55,-1.31,yes,yes,yes,300434063449970,SIMB3,CIS,unknown,North
2021-11-24T18:01:00Z,2021,18,1,328.7507,328.7507,56.51628,-61.65948,1023.6,1.58,-1.12,yes,yes,yes,300434063449970,SIMB3,CIS,unknown,North
2021-11-24T19:01:03Z,2021,19,1,328.7924,328.7924,56.51622,-61.65952,1024.0,1.56,-1.75,yes,yes,yes,300434063449970,SIMB3,CIS,unknown,North
2021-11-24T20:00:48Z,2021,20,0,328.8339,328.8339,56.51628,-61.65966,1024.6,1.56,-1.75,yes,yes,yes,300434063449970,SIMB3,CIS,unknown,North
2021-11-24T21:01:00Z,2021,21,1,328.8757,328.8757,56.51629,-61.65948,1025.7,1.35,-2.06,yes,yes,yes,300434063449970,SIMB3,CIS,unknown,North
2021-11-24T22:01:12Z,2021,22,1,328.9175,328.9175,56.51624,-61.65953,1025.9,1.48,-3.69,yes,yes,yes,300434063449970,SIMB3,CIS,unknown,North
2021-11-24T23:01:06Z,2021,23,1,328.9591,328.9591,56.51631,-61.65955,1026.6,1.68,-4.31,yes,yes,yes,300434063449970,SIMB3,CIS,unknown,North
2021-11-25T00:00:51Z,2021,0,0,329.0006,329.0006,56.51632,-61.65961,1026.9,1.75,-5.19,yes,yes,yes,300434063449970,SIMB3,CIS,unknown,North
2021-11-25T01:01:03Z,2021,1,1,329.0424,329.0424,56.51627,-61.65961,1027.2,1.75,-5.31,yes,yes,yes,300434063449970,SIMB3,CIS,unknown,North
2021-11-25T02:00:57Z,2021,2,0,329.084,329.084,56.51621,-61.65955,1027.3,1.66,-5.62,yes,yes,yes,300434063449970,SIMB3,CIS,unknown,North
2021-11-25T03:00:51Z,2021,3,0,329.1256,329.1256,56.51631,-61.65946,1027.5,1.58,-5.69,yes,yes,yes,300434063449970,SIMB3,CIS,unknown,North
2021-11-25T04:00:54Z,2021,4,0,329.1673,329.1673,56.51638,-61.65954,1027.4,1.53,-6.06,yes,yes,yes,300434063449970,SIMB3,CIS,unknown,North
2021-11-25T05:00:57Z,2021,5,0,329.209,329.209,56.51628,-61.65948,1027.5,1.32,-6.0,yes,yes,yes,300434063449970,SIMB3,CIS,unknown,North
2021-11-25T06:01:17Z,2021,6,1,329.2509,329.2509,56.51626,-61.65946,1027.3,1.33,-6.06,yes,yes,yes,300434063449970,SIMB3,CIS,unknown,North
2021-11-25T07:01:03Z,2021,7,1,329.2924,329.2924,56.51629,-61.65954,1027.3,1.25,-5.56,yes,yes,yes,300434063449970,SIMB3,CIS,unknown,North
2021-11-25T08:01:06Z,2021,8,1,329.3341,329.3341,56.51629,-61.65961,1027.3,1.35,-5.0,yes,yes,yes,300434063449970,SIMB3,CIS,unknown,North
2021-11-25T09:00:51Z,2021,9,0,329.3756,329.3756,56.51626,-61.65963,1027.1,1.37,-5.0,yes,yes,yes,300434063449970,SIMB3,CIS,unknown,North
2021-11-25T10:02:03Z,2021,10,2,329.4181,329.4181,56.51623,-61.65956,1026.5,1.37,-4.44,yes,yes,yes,300434063449970,SIMB3,CIS,unknown,North
2021-11-25T11:00:48Z,2021,11,0,329.4589,329.4589,56.51626,-61.65961,1025.8,1.66,-2.5,yes,yes,yes,300434063449970,SIMB3,CIS,unknown,North
2021-11-25T12:01:00Z,2021,12,1,329.5007,329.5007,56.51629,-61.65961,1025.6,1.74,-2.88,yes,yes,yes,300434063449970,SIMB3,CIS,unknown,North
2021-11-25T13:01:03Z,2021,13,1,329.5424,329.5424,56.51633,-61.65963,1025.2,1.77,-3.38,yes,yes,yes,300434063449970,SIMB3,CIS,unknown,North
2021-11-25T14:00:48Z,2021,14,0,329.5839,329.5839,56.5163,-61.65961,1024.4,1.84,-2.75,yes,yes,yes,300434063449970,SIMB3,CIS,unknown,North
2021-11-25T15:03:18Z,2021,15,3,329.6273,329.6273,56.5163,-61.65952,1023.4,1.56,-2.69,yes,yes,yes,300434063449970,SIMB3,CIS,unknown,North
2021-11-25T16:00:54Z,2021,16,0,329.6673,329.6673,56.51619,-61.65949,1022.3,1.25,-2.31,yes,yes,yes,300434063449970,SIMB3,CIS,unknown,North
2021-11-25T17:00:48Z,2021,17,0,329.7089,329.7089,56.51618,-61.65936,1021.2,1.66,-1.94,yes,yes,yes,300434063449970,SIMB3,CIS,unknown,North
2021-11-25T18:01:00Z,2021,18,1,329.7507,329.7507,56.51628,-61.65788,1020.7,1.46,-1.62,yes,yes,yes,300434063449970,SIMB3,CIS,unknown,North
2021-11-25T19:01:03Z,2021,19,1,329.7924,329.7924,56.51612,-61.65934,1020.5,1.38,-1.94,yes,yes,yes,300434063449970,SIMB3,CIS,unknown,North
2021-11-25T20:00:57Z,2021,20,0,329.834,329.834,56.51607,-61.65939,1020.2,1.35,-1.69,yes,yes,yes,300434063449970,SIMB3,CIS,unknown,North
2021-11-25T21:01:00Z,2021,21,1,329.8757,329.8757,56.51629,-61.65933,1019.6,1.35,-1.62,yes,yes,yes,300434063449970,SIMB3,CIS,unknown,North
2021-11-25T22:01:55Z,2021,22,1,329.918,329.918,56.51614,-61.65934,1019.4,1.25,-1.19,yes,yes,yes,300434063449970,SIMB3,CIS,unknown,North
2021-11-25T23:01:32Z,2021,23,1,329.9594,329.9594,56.51618,-61.65926,1019.0,1.25,-1.19,yes,yes,yes,300434063449970,SIMB3,CIS,unknown,North
2021-11-26T00:01:00Z,2021,0,1,330.0007,330.0007,56.5165,-61.65969,1018.5,1.25,-1.19,yes,yes,yes,300434063449970,SIMB3,CIS,unknown,North
2021-11-26T01:01:29Z,2021,1,1,330.0427,330.0427,56.51618,-61.65964,1017.6,1.46,-0.94,yes,yes,yes,300434063449970,SIMB3,CIS,unknown,North
2021-11-26T02:02:24Z,2021,2,2,330.085,330.085,56.51624,-61.65959,1017.2,1.56,-0.5,yes,yes,yes,300434063449970,SIMB3,CIS,unknown,North
2021-11-26T03:01:00Z,2021,3,1,330.1257,330.1257,56.51629,-61.65956,1016.2,1.56,-0.69,yes,yes,yes,300434063449970,SIMB3,CIS,unknown,North
2021-11-26T04:01:03Z,2021,4,1,330.1674,330.1674,56.51626,-61.65956,1015.8,1.56,-0.81,yes,yes,yes,300434063449970,SIMB3,CIS,unknown,North
2021-11-26T05:00:57Z,2021,5,0,330.209,330.209,56.51624,-61.65965,1015.2,1.35,-0.38,yes,yes,yes,300434063449970,SIMB3,CIS,unknown,North
2021-11-26T06:01:26Z,2021,6,1,330.251,330.251,56.51614,-61.65954,1014.6,1.37,-0.31,yes,yes,yes,300434063449970,SIMB3,CIS,unknown,North
2021-11-26T07:00:54Z,2021,7,0,330.2923,330.2923,56.5161,-61.65942,1014.2,1.04,-0.19,yes,yes,yes,300434063449970,SIMB3,CIS,unknown,North
2021-11-26T08:01:49Z,2021,8,1,330.3346,330.3346,56.51612,-61.65954,1014.2,1.2,0.0,yes,yes,yes,300434063449970,SIMB3,CIS,unknown,North
2021-11-26T09:00:51Z,2021,9,0,330.3756,330.3756,56.5161,-61.65947,1013.5,1.35,0.12,yes,yes,yes,300434063449970,SIMB3,CIS,unknown,North
2021-11-26T10:00:54Z,2021,10,0,330.4173,330.4173,56.51608,-61.65955,1012.6,1.35,0.38,yes,yes,yes,300434063449970,SIMB3,CIS,unknown,North
2021-11-26T11:03:59Z,2021,11,4,330.4611,330.4611,56.51611,-61.65955,1012.0,1.46,0.62,yes,yes,yes,300434063449970,SIMB3,CIS,unknown,North
2021-11-26T12:01:00Z,2021,12,1,330.5007,330.5007,56.51612,-61.65959,1011.5,1.46,0.38,yes,yes,yes,300434063449970,SIMB3,CIS,unknown,North
2021-11-26T13:01:37Z,2021,13,1,330.5428,330.5428,56.51612,-61.65952,1010.9,1.48,0.44,yes,yes,yes,300434063449970,SIMB3,CIS,unknown,North
2021-11-26T14:02:24Z,2021,14,2,330.585,330.585,56.51612,-61.65946,1010.1,1.56,0.5,yes,yes,yes,300434063449970,SIMB3,CIS,unknown,North
2021-11-26T15:01:00Z,2021,15,1,330.6257,330.6257,56.51621,-61.65937,1009.4,1.46,0.75,yes,yes,yes,300434063449970,SIMB3,CIS,unknown,North
2021-11-26T16:01:03Z,2021,16,1,330.6674,330.6674,56.5161,-61.6593,1008.5,1.56,0.69,yes,yes,yes,300434063449970,SIMB3,CIS,unknown,North
2021-11-26T17:01:23Z,2021,17,1,330.7093,330.7093,56.51657,-61.6591,1007.2,1.55,0.88,yes,yes,yes,300434063449970,SIMB3,CIS,unknown,North
2021-11-26T18:01:00Z,2021,18,1,330.7507,330.7507,56.51618,-61.65946,1007.0,1.53,1.19,yes,yes,yes,300434063449970,SIMB3,CIS,unknown,North
2021-11-26T19:01:03Z,2021,19,1,330.7924,330.7924,56.51615,-61.6595,1006.6,1.56,1.31,yes,yes,yes,300434063449970,SIMB3,CIS,unknown,North
2021-11-26T20:01:23Z,2021,20,1,330.8343,330.8343,56.5161,-61.65952,1006.3,1.65,1.31,yes,yes,yes,300434063449970,SIMB3,CIS,unknown,North
2021-11-26T21:01:00Z,2021,21,1,330.8757,330.8757,56.51612,-61.65954,1005.9,1.65,1.19,yes,yes,yes,300434063449970,SIMB3,CIS,unknown,North
2021-11-26T22:00:54Z,2021,22,0,330.9173,330.9173,56.51611,-61.65958,1005.6,1.62,1.12,yes,yes,yes,300434063449970,SIMB3,CIS,unknown,North
2021-11-26T23:00:57Z,2021,23,0,330.959,330.959,56.5161,-61.65957,1004.9,1.56,1.31,yes,yes,yes,300434063449970,SIMB3,CIS,unknown,North
2021-11-27T00:00:51Z,2021,0,0,331.0006,331.0006,56.51621,-61.65961,1004.2,1.6,1.31,yes,yes,yes,300434063449970,SIMB3,CIS,unknown,North
2021-11-27T01:02:03Z,2021,1,2,331.0431,331.0431,56.51596,-61.65977,1003.6,1.66,1.19,yes,yes,yes,300434063449970,SIMB3,CIS,unknown,North
2021-11-27T02:01:23Z,2021,2,1,331.0843,331.0843,56.51584,-61.66,1002.5,1.6,1.12,yes,yes,yes,300434063449970,SIMB3,CIS,unknown,North
2021-11-27T03:00:51Z,2021,3,0,331.1256,331.1256,56.51626,-61.65961,1002.4,1.56,1.12,yes,yes,yes,300434063449970,SIMB3,CIS,unknown,North
2021-11-27T04:00:54Z,2021,4,0,331.1673,331.1673,56.51625,-61.65947,1001.3,1.56,1.38,yes,yes,yes,300434063449970,SIMB3,CIS,unknown,North
2021-11-27T05:01:23Z,2021,5,1,331.2093,331.2093,56.51626,-61.65953,1000.6,1.66,1.06,yes,yes,yes,300434063449970,SIMB3,CIS,unknown,North
2021-11-27T06:03:53Z,2021,6,3,331.2527,331.2527,56.51621,-61.65965,1000.2,1.65,1.44,yes,yes,yes,300434063449970,SIMB3,CIS,unknown,North
2021-11-27T07:01:03Z,2021,7,1,331.2924,331.2924,56.51613,-61.65957,999.4,1.56,1.81,yes,yes,yes,300434063449970,SIMB3,CIS,unknown,North
2021-11-27T08:00:48Z,2021,8,0,331.3339,331.3339,56.51618,-61.65961,999.3,1.56,1.56,yes,yes,yes,300434063449970,SIMB3,CIS,unknown,North
2021-11-27T09:02:09Z,2021,9,2,331.3765,331.3765,56.51607,-61.65959,998.7,1.66,1.56,yes,yes,yes,300434063449970,SIMB3,CIS,unknown,North
2021-11-27T10:00:54Z,2021,10,0,331.4173,331.4173,56.51606,-61.65957,997.8,1.64,1.62,yes,yes,yes,300434063449970,SIMB3,CIS,unknown,North
2021-11-27T11:00:57Z,2021,11,0,331.459,331.459,56.51612,-61.65961,997.8,1.58,1.81,yes,yes,yes,300434063449970,SIMB3,CIS,unknown,North
2021-11-27T12:01:00Z,2021,12,1,331.5007,331.5007,56.51618,-61.65964,997.6,1.56,1.81,yes,yes,yes,300434063449970,SIMB3,CIS,unknown,North
2021-11-27T13:00:54Z,2021,13,0,331.5423,331.5423,56.5162,-61.65961,997.2,1.66,1.62,yes,yes,yes,300434063449970,SIMB3,CIS,unknown,North
2021-11-27T14:00:57Z,2021,14,0,331.584,331.584,56.51615,-61.65959,996.8,1.66,2.31,yes,yes,yes,300434063449970,SIMB3,CIS,unknown,North
2021-11-27T15:02:44Z,2021,15,2,331.6269,331.6269,56.51616,-61.65963,996.5,1.66,2.31,yes,yes,yes,300434063449970,SIMB3,CIS,unknown,North
2021-11-27T16:02:03Z,2021,16,2,331.6681,331.6681,56.51682,-61.65763,995.8,1.66,2.12,yes,yes,yes,300434063449970,SIMB3,CIS,unknown,North
2021-11-27T17:01:14Z,2021,17,1,331.7092,331.7092,56.51616,-61.65966,996.1,1.66,1.94,yes,yes,yes,300434063449970,SIMB3,CIS,unknown,North
2021-11-27T18:00:51Z,2021,18,0,331.7506,331.7506,56.51625,-61.65951,995.9,1.66,1.88,yes,yes,yes,300434063449970,SIMB3,CIS,unknown,North
2021-11-27T19:02:29Z,2021,19,2,331.7934,331.7934,56.51614,-61.65951,995.5,1.66,1.94,yes,yes,yes,300434063449970,SIMB3,CIS,unknown,North
2021-11-27T20:00:57Z,2021,20,1,331.834,331.834,56.51614,-61.65939,996.1,1.66,1.44,yes,yes,yes,300434063449970,SIMB3,CIS,unknown,North
2021-11-27T21:00:51Z,2021,21,0,331.8756,331.8756,56.5161,-61.65946,995.8,1.69,1.75,yes,yes,yes,300434063449970,SIMB3,CIS,unknown,North
2021-11-27T22:01:20Z,2021,22,1,331.9176,331.9176,56.51619,-61.65951,996.3,1.66,1.31,yes,yes,yes,300434063449970,SIMB3,CIS,unknown,North
2021-11-27T23:00:48Z,2021,23,0,331.9589,331.9589,56.51625,-61.65946,996.0,1.66,1.19,yes,yes,yes,300434063449970,SIMB3,CIS,unknown,North
2021-11-28T00:01:17Z,2021,0,1,332.0009,332.0009,56.51623,-61.6597,995.3,1.66,1.62,yes,yes,yes,300434063449970,SIMB3,CIS,unknown,North
2021-11-28T01:01:03Z,2021,1,1,332.0424,332.0424,56.51612,-61.65964,995.5,1.66,1.5,yes,yes,yes,300434063449970,SIMB3,CIS,unknown,North
2021-11-28T02:00:57Z,2021,2,0,332.084,332.084,56.51608,-61.65947,994.5,1.66,1.31,yes,yes,yes,300434063449970,SIMB3,CIS,unknown,North
2021-11-28T03:01:17Z,2021,3,1,332.1259,332.1259,56.51608,-61.65958,993.0,1.66,1.25,yes,yes,yes,300434063449970,SIMB3,CIS,unknown,North
2021-11-28T04:01:12Z,2021,4,1,332.1675,332.1675,56.51614,-61.65956,992.0,1.66,1.19,yes,yes,yes,300434063449970,SIMB3,CIS,unknown,North
2021-11-28T05:02:41Z,2021,5,2,332.2102,332.2102,56.51616,-61.65956,991.2,1.66,1.25,yes,yes,yes,300434063449970,SIMB3,CIS,unknown,North
2021-11-28T07:01:03Z,2021,7,1,332.2924,332.2924,56.51614,-61.65974,989.5,1.63,0.88,yes,yes,yes,300434063449970,SIMB3,CIS,unknown,North
2021-11-28T08:00:57Z,2021,8,0,332.334,332.334,56.5161,-61.65952,988.6,1.64,0.88,yes,yes,yes,300434063449970,SIMB3,CIS,unknown,North
2021-11-28T09:00:51Z,2021,9,0,332.3756,332.3756,56.51612,-61.65952,987.5,1.58,0.94,yes,yes,yes,300434063449970,SIMB3,CIS,unknown,North
2021-11-28T10:02:38Z,2021,10,2,332.4185,332.4185,56.51616,-61.6595,987.4,1.56,1.06,yes,yes,yes,300434063449970,SIMB3,CIS,unknown,North
2021-11-28T11:00:57Z,2021,11,0,332.459,332.459,56.51622,-61.65942,987.0,1.56,0.75,yes,yes,yes,300434063449970,SIMB3,CIS,unknown,North
2021-11-28T12:01:00Z,2021,12,1,332.5007,332.5007,56.51624,-61.65944,986.9,1.64,0.69,yes,yes,yes,300434063449970,SIMB3,CIS,unknown,North
2021-11-28T13:03:12Z,2021,13,3,332.5439,332.5439,56.51625,-61.65941,986.2,1.66,0.62,yes,yes,yes,300434063449970,SIMB3,CIS,unknown,North
2021-11-28T14:00:57Z,2021,14,0,332.584,332.584,56.51618,-61.65942,985.6,1.66,0.88,yes,yes,yes,300434063449970,SIMB3,CIS,unknown,North
2021-11-28T15:00:51Z,2021,15,0,332.6256,332.6256,56.51631,-61.6596,985.2,1.65,1.31,yes,yes,yes,300434063449970,SIMB3,CIS,unknown,North
2021-11-28T16:01:03Z,2021,16,1,332.6674,332.6674,56.51626,-61.65961,984.1,1.66,1.44,yes,yes,yes,300434063449970,SIMB3,CIS,unknown,North
2021-11-28T17:01:06Z,2021,17,1,332.7091,332.7091,56.51612,-61.65941,983.5,1.66,1.31,yes,yes,yes,300434063449970,SIMB3,CIS,unknown,North
2021-11-28T18:01:00Z,2021,18,1,332.7507,332.7507,56.51616,-61.65947,983.1,1.66,1.06,yes,yes,yes,300434063449970,SIMB3,CIS,unknown,North
2021-11-28T19:01:03Z,2021,19,1,332.7924,332.7924,56.51619,-61.6595,983.0,1.66,0.81,yes,yes,yes,300434063449970,SIMB3,CIS,unknown,North
2021-11-28T20:00:57Z,2021,20,1,332.834,332.834,56.5162,-61.65938,983.1,1.66,0.81,yes,yes,yes,300434063449970,SIMB3,CIS,unknown,North
2021-11-28T21:02:00Z,2021,21,2,332.8764,332.8764,56.51606,-61.65926,983.1,1.66,1.5,yes,yes,yes,300434063449970,SIMB3,CIS,unknown,North
2021-11-28T22:01:03Z,2021,22,1,332.9174,332.9174,56.5163,-61.65944,983.0,1.66,1.56,yes,yes,yes,300434063449970,SIMB3,CIS,unknown,North
2021-11-28T23:01:06Z,2021,23,1,332.9591,332.9591,56.51633,-61.65942,983.0,1.77,1.69,yes,yes,yes,300434063449970,SIMB3,CIS,unknown,North